STARLINK-1656, 46353

Orbit data source: Space-Track

STARLINK-1656, 46353 is a payload satellite owned by SpaceX/Seattle (US) in LEO that was launched on Thu, 03 Sep 2020 UTC via an FALCON 9 launch vehicle from the Air Force Eastern Test Range (AFETR). Payloads include a variety of satellites, spacecraft, and rockets equipped with specific instruments for various scientific and technological missions. These include communications satellites like Starlink; space stations such as the ISS; scientific satellites like the Hubble; Earth observation satellites from companies like Planet Labs, Umbra, and HawkEye 360; GPS; miniature CubeSats for education and research; and military/defense satellites.

Loading next visibility...
STARLINK-1656 details
Identifier
46353, 2020-062AE
Orbit
LEO
Last TLE update12 hours ago
Origin
Flag of USSpaceX/Seattle (US)
ManufacturerSpaceX/Seattle
MissionOperational Commercial Communications
Bus & MotorSTARLINK, Unknown motor
Mass260 kg wet, ~248 kg dry
Launch date (UTC)
2020-09-03 (4 years ago)
Launch vehicle
FALCON 9
Launch site
Air Force Eastern Test Range (AFETR)
Object type
Payload
Rocket body
Debris
Shape & HBRBox + 1 Pan, 8.86 m
Radar Cross Section13.562 m², Large (>1 m²)

Expand to show TLE details & history

TLE from 12 hours ago
0 STARLINK-1656
1 46353U 20062AE  25024.05057624  .00009957  00000-0  68631-3 0  9990
2 46353  53.0556  55.5576 0002051 314.5332  45.5489 15.06405389242744
Epoch: 2025-01-24T01:12Z
Definitive object data (Epoch: 2025-01-24T01:12:49.787Z)
Latitude-0.00002°
Longitude-86.26917°
Altitude547.08 km
Speed7.59 km/s
True Right ascension03h 42m 13s
True Declination0° 00' 00"
Sunlit
Object was in daylight at TLE epoch
Visualization TLE readout
Latitude-26.45003°
Longitude113.31287°
Altitude555.255 km
Speed7.584 km/s
Apparent Right ascension20h 28m 42s
Apparent Declination-62° 35' 55"
Sunlit
Object is in daylight
Visualization observer readout
Local Sidereal Time14:34:15
Azimuth146.231° SSE
Elevation-34.134°
Doppler factor1
Orbital elements
Apogee altitude548.886 km
Perigee altitude546.045 km
Semi-major axis6,925.603 km
Eccentricity0.0002051
Inclination53.0556°
RAAN55.5576°
Arg. of periapsis314.5332°
True anomaly45.56568°
Mean anomaly45.5489°
Eccentric anomaly45.55729°
Mean motion3.7658 °/min
BSTAR0.00068631
Orbital period95.6 mins
Loading maneuver chart data...
Loading historical data...
Loading historical data...
Loading historical data...
Loading historical data...
Loading historical data...
Loading historical data...
Loading historical data...

STARLINK-1656 Visibility forecast

Observer location: undefined°, undefined

Span
Click to sort rows by Start time (UTC) header in descending order
Start Az.
Max El. time (UTC)
Max El. Az.
Max El.
End time (UTC)
End Az.
7 mins2025-01-25 04:27:16.265Z223.483° SW2025-01-25 04:31:16.265Z77.862° E42.476°2025-01-25 04:34:16.265Z53.225° ENE
4 mins2025-01-25 06:09:16.265Z306.882° NW2025-01-25 06:10:16.265Z327.08° NNW20.921°2025-01-25 06:13:16.265Z23.092° NE
4 mins2025-01-25 09:31:16.265Z0.09° NNE2025-01-25 09:32:16.265Z19.65° NNE18.487°2025-01-25 09:35:16.265Z67.17° ENE
7 mins2025-01-25 11:09:16.265Z313.83° NW2025-01-25 11:12:16.265Z24.105° NE44.125°2025-01-25 11:16:16.265Z125.089° SE
|